星链-1333 (STARLINK-1333 )

导读 | 星芒AI

STARLINK-1333 是 SpaceX Starlink 项目中的第1333颗卫星,属于其低轨卫星互联网星座的一部分。该卫星于2022年发射,旨在为全球用户提供高速、低延迟的互联网服务。它运行在约550公里的近地轨道上,采用先进推进系统和激光通信技术,以提高网络效率和稳定性。Starlink 项目致力于改善偏远地区的网络接入,同时支持各类商业和军事应用。

基本信息
目录编号:
45580
目录名称:
STARLINK-1333
国际标识:
2020-025BB
轨道中心:
EARTH
卫星名称:
星链-1333
卫星全名:
星链-1333 (STARLINK-1333 )
卫星状态:
在轨 (已飞行2064 天)
发射日期:
2020-04-22 UTC
国别 :
美国 (US)
星等 :
--
轨道信息
数据来源 国际轨道数据 AOE轨道数据
星历时间 2025-12-15T09:35:51+0800
1天前
查看轨道信息
2025-12-10T07:00:00+0800
6天前
查看轨道信息
半长轴 6925.358km 6925.342km
偏心率 0.0001243 0.0001431
轨道倾角 53.055° 53.054°
近地点辐角 81.636° 80.952°
升交点赤经 106.504° 129.438°
平近点角 278.476° 281.724°
近地点 546.362km 546.215km
远地点 548.084km 548.199km
周期 95.592分钟 95.592分钟
每日圈数 15.063971 15.064024
详细信息
固有亮度:
5
最大亮度:
2.5
卫星平台:
Starlink V1.0
覆盖范围:
全球
运营商:
太空探索技术公司
运营商所在国:
美国
制造商(研发单位):
太空探索技术公司
制造商所在国:
美国
使用方式:
暂无
卫星简介
星链(Starlink)计划是由太空探索技术公司(SpaceX)提出的一个巨型低轨卫星互联网星座项目,计划在2019年至2024年间在太空搭建由约1.2万颗卫星组成的“星链”网络,其中1584颗将部署在地球上空550千米处的近地轨道,并从2020年开始工作。该卫星仍在工作。
2D轨道图
3D轨道图
轨道高度分析图
轨道倾角分析图
轨道综合分析图
查看轨道综合分析图